TimeMDT,TemperatureF,Dew PointF,Humidity,Sea Level PressureIn,VisibilityMPH,Wind Direction,Wind SpeedMPH,Gust SpeedMPH,PrecipitationIn,Events,Conditions,WindDirDegrees,DateUTC
1:35 AM,44.6,28.4,53,30.06,10.0,Calm,Calm,-,N/A,,Clear,0,2012-10-19 07:35:00
1:55 AM,42.8,28.4,57,30.06,10.0,Calm,Calm,-,N/A,,Clear,0,2012-10-19 07:55:00
2:15 AM,41.0,28.4,61,30.07,10.0,East,5.8,-,N/A,,Clear,80,2012-10-19 08:15:00
2:35 AM,42.8,26.6,53,30.07,10.0,ESE,3.5,-,N/A,,Clear,120,2012-10-19 08:35:00
2:55 AM,42.8,28.4,57,30.06,10.0,ESE,8.1,-,N/A,,Clear,120,2012-10-19 08:55:00
3:16 AM,42.8,28.4,57,30.06,10.0,SSE,4.6,-,N/A,,Clear,160,2012-10-19 09:16:00
3:35 AM,42.8,28.4,57,30.06,10.0,South,4.6,-,N/A,,Clear,170,2012-10-19 09:35:00
3:55 AM,42.8,30.2,61,30.06,10.0,Calm,Calm,-,N/A,,Clear,0,2012-10-19 09:55:00
4:15 AM,39.2,28.4,65,30.06,10.0,Calm,Calm,-,N/A,,Clear,0,2012-10-19 10:15:00
4:35 AM,41.0,28.4,61,30.06,10.0,Calm,Calm,-,N/A,,Clear,0,2012-10-19 10:35:00
4:55 AM,41.0,28.4,61,30.05,10.0,Calm,Calm,-,N/A,,Clear,0,2012-10-19 10:55:00
5:15 AM,37.4,28.4,70,30.05,10.0,Calm,Calm,-,N/A,,Clear,0,2012-10-19 11:15:00
5:35 AM,37.4,28.4,70,30.06,10.0,Calm,Calm,-,N/A,,Clear,0,2012-10-19 11:35:00
5:55 AM,37.4,26.6,65,30.05,10.0,Calm,Calm,-,N/A,,Clear,0,2012-10-19 11:55:00
6:15 AM,37.4,28.4,70,30.04,9.0,SE,3.5,-,N/A,,Clear,140,2012-10-19 12:15:00
6:55 AM,37.4,28.4,70,30.05,10.0,East,3.5,-,N/A,,Clear,90,2012-10-19 12:55:00
7:15 AM,37.4,28.4,70,30.04,10.0,ESE,3.5,-,N/A,,Clear,110,2012-10-19 13:15:00
7:35 AM,37.4,28.4,70,30.04,10.0,Calm,Calm,-,N/A,,Clear,0,2012-10-19 13:35:00
7:55 AM,39.2,28.4,65,30.05,10.0,NNE,3.5,-,N/A,,Clear,30,2012-10-19 13:55:00
8:15 AM,39.2,30.2,70,30.05,10.0,Calm,Calm,-,N/A,,Clear,0,2012-10-19 14:15:00
8:35 AM,41.0,30.2,65,30.05,10.0,Calm,Calm,-,N/A,,Clear,0,2012-10-19 14:35:00
8:55 AM,41.0,30.2,65,30.05,10.0,Calm,Calm,-,N/A,,Clear,0,2012-10-19 14:55:00
9:15 AM,42.8,30.2,61,30.06,10.0,Calm,Calm,-,N/A,,Scattered Clouds,0,2012-10-19 15:15:00
9:35 AM,42.8,30.2,61,30.06,10.0,Calm,Calm,-,N/A,,Mostly Cloudy,0,2012-10-19 15:35:00
9:55 AM,44.6,30.2,57,30.06,10.0,East,3.5,-,N/A,,Overcast,90,2012-10-19 15:55:00
10:35 AM,46.4,32.0,57,30.06,10.0,South,4.6,-,N/A,,Mostly Cloudy,170,2012-10-19 16:35:00
10:55 AM,48.2,30.2,50,30.05,10.0,SSE,3.5,-,N/A,,Overcast,150,2012-10-19 16:55:00
11:15 AM,50.0,30.2,47,30.05,10.0,South,4.6,-,N/A,,Overcast,170,2012-10-19 17:15:00
11:35 AM,51.8,30.2,44,30.05,10.0,SSE,8.1,-,N/A,,Overcast,160,2012-10-19 17:35:00
11:55 AM,51.8,32.0,47,30.04,10.0,SE,8.1,-,N/A,,Mostly Cloudy,130,2012-10-19 17:55:00
12:15 PM,53.6,32.0,44,30.04,10.0,SE,5.8,-,N/A,,Mostly Cloudy,140,2012-10-19 18:15:00
12:35 PM,53.6,33.8,47,30.04,10.0,ESE,4.6,-,N/A,,Mostly Cloudy,120,2012-10-19 18:35:00
12:55 PM,53.6,33.8,47,30.02,10.0,East,4.6,-,N/A,,Overcast,90,2012-10-19 18:55:00
1:15 PM,53.6,33.8,47,30.01,10.0,ESE,3.5,-,N/A,,Overcast,110,2012-10-19 19:15:00
1:35 PM,55.4,33.8,44,30.00,10.0,Calm,Calm,-,N/A,,Overcast,0,2012-10-19 19:35:00
1:55 PM,55.4,33.8,44,29.99,10.0,NE,4.6,-,N/A,,Overcast,50,2012-10-19 19:55:00
2:15 PM,53.6,35.6,51,29.99,9.0,Calm,Calm,-,N/A,,Overcast,0,2012-10-19 20:15:00
2:35 PM,53.6,35.6,51,29.97,10.0,Calm,Calm,-,N/A,,Mostly Cloudy,0,2012-10-19 20:35:00
2:55 PM,53.6,37.4,54,29.95,10.0,NNW,3.5,-,N/A,,Partly Cloudy,340,2012-10-19 20:55:00
3:15 PM,53.6,37.4,54,29.94,10.0,Calm,Calm,-,N/A,,Mostly Cloudy,0,2012-10-19 21:15:00
3:35 PM,55.4,37.4,51,29.93,10.0,North,3.5,-,N/A,,Overcast,350,2012-10-19 21:35:00
3:55 PM,55.4,37.4,51,29.92,10.0,North,4.6,-,N/A,,Mostly Cloudy,10,2012-10-19 21:55:00
4:15 PM,55.4,37.4,51,29.91,10.0,NNE,3.5,-,N/A,,Scattered Clouds,20,2012-10-19 22:15:00
4:35 PM,55.4,37.4,51,29.90,10.0,North,3.5,-,N/A,,Overcast,350,2012-10-19 22:35:00
5:15 PM,57.2,37.4,48,29.87,10.0,Calm,Calm,-,N/A,,Mostly Cloudy,0,2012-10-19 23:15:00
5:35 PM,57.2,37.4,48,29.86,10.0,East,3.5,-,N/A,,Mostly Cloudy,80,2012-10-19 23:35:00
5:55 PM,55.4,39.2,54,29.85,10.0,Calm,Calm,-,N/A,,Overcast,0,2012-10-19 23:55:00
6:15 PM,55.4,37.4,51,29.84,10.0,Calm,Calm,-,N/A,,Overcast,0,2012-10-20 00:15:00
6:35 PM,55.4,39.2,54,29.84,10.0,Calm,Calm,-,N/A,,Overcast,0,2012-10-20 00:35:00
6:55 PM,55.4,37.4,51,29.83,10.0,West,3.5,-,N/A,,Overcast,270,2012-10-20 00:55:00
7:15 PM,53.6,37.4,54,29.83,10.0,WNW,5.8,-,N/A,,Mostly Cloudy,290,2012-10-20 01:15:00
7:35 PM,53.6,37.4,54,29.82,10.0,Calm,Calm,-,N/A,,Mostly Cloudy,0,2012-10-20 01:35:00
7:55 PM,51.8,39.2,62,29.80,10.0,SSE,8.1,-,N/A,,Overcast,150,2012-10-20 01:55:00
8:15 PM,53.6,39.2,58,29.81,10.0,WNW,6.9,-,N/A,,Mostly Cloudy,300,2012-10-20 02:15:00
8:35 PM,51.8,39.2,62,29.81,10.0,North,3.5,-,N/A,,Overcast,360,2012-10-20 02:35:00
8:55 PM,51.8,39.2,62,29.81,10.0,NNE,4.6,-,N/A,,Mostly Cloudy,20,2012-10-20 02:55:00
9:15 PM,51.8,37.4,58,29.80,10.0,Calm,Calm,-,N/A,,Partly Cloudy,0,2012-10-20 03:15:00
9:35 PM,50.0,39.2,66,29.80,10.0,NNE,4.6,-,N/A,,Scattered Clouds,30,2012-10-20 03:35:00
9:55 PM,50.0,39.2,66,29.80,10.0,NW,6.9,-,N/A,,Mostly Cloudy,310,2012-10-20 03:55:00
10:35 PM,51.8,39.2,62,29.79,10.0,NW,3.5,-,N/A,,Mostly Cloudy,310,2012-10-20 04:35:00
10:55 PM,51.8,39.2,62,29.80,10.0,WNW,6.9,-,N/A,,Mostly Cloudy,300,2012-10-20 04:55:00
11:15 PM,51.8,39.2,62,29.79,10.0,West,3.5,-,N/A,,Overcast,280,2012-10-20 05:15:00
11:35 PM,50.0,39.2,66,29.79,10.0,SW,4.6,-,N/A,,Overcast,230,2012-10-20 05:35:00
11:55 PM,48.2,37.4,66,29.80,10.0,West,4.6,-,N/A,,Mostly Cloudy,280,2012-10-20 05:55:00